Tracking 33744 objects as of 12-Apr-2026
HD Live streaming from Space Station
objects crossing your sky now

OBJECT C

Track OBJECT C now!
10-day predictions


NORAD ID: 59679
Int'l Code: 2024-085C
Perigee: 457.5 km
Apogee: 492.7 km
Inclination: 97.3 °
Period: 94.0 minutes
Semi major axis: 6846 km
RCS: Unknown
Launch date: May 7, 2024
Source: People's Republic of China (PRC)
Launch site: Taiyaun Space Center, China (TSC)
Your satellite tracking list
Your tracking list is empty




NASA's NSSDC Master Catalog

Two Line Element Set (TLE):
1 59679U 24085C   26102.32212991  .00006091  00000-0  19380-3 0  9995
2 59679  97.3315 178.7560 0025708 274.7357  85.0950 15.32641597107555
Source of the keplerian elements: AFSPC